Weather History for KGSO - October, 2013

Change the Weather History Date:

Wednesday, October 30, 2013

  Actual Average Record
Temperature  
Mean Temperature 66 °F 55 °F  
Max Temperature 77 °F 67 °F 83 °F (1961)
Min Temperature 54 °F 44 °F 25 °F (1965)
Degree Days  
Heating Degree Days 0 10  
Month to date heating degree days 159 192  
Since 1 July heating degree days 175 223  
Cooling Degree Days 1 0  
Month to date cooling degree days 50 35  
Year to date cooling degree days 1381 1482  
Growing Degree Days 16 (Base 50)    
Moisture  
Dew Point 53 °F    
Average Humidity 70    
Maximum Humidity 93    
Minimum Humidity 46    
Precipitation  
Precipitation 0.00 in 0.10 in 3.19 in (1949)
Month to date precipitation 1.11 3.02  
Year to date precipitation 41.63 36.00  
Sea Level Pressure  
Sea Level Pressure 30.22 in    
Wind  
Wind Speed 6 mph (SW)    
Max Wind Speed 17 mph    
Max Gust Speed 21 mph    
Visibility 9 miles    
Events      
T = Trace of Precipitation, MM = Missing Value Source: NWS Daily Summary

Daily Weather History Graph

Daily Weather History Graph

Search for Another Location

Airport or City:

Trip Planner

Search our weather history database for the weather conditions in past years. The results will help you decide how hot, cold, wet, or windy it might be!

Date:

Astronomy

Oct. 30, 2013 Rise Set
Actual Time 7:40 AM EDT 6:25 PM EDT
Civil Twilight 7:14 AM EDT 6:52 PM EDT
Nautical Twilight 6:43 AM EDT 7:22 PM EDT
Astronomical Twilight 6:14 AM EDT 7:52 PM EDT
Moon 3:35 AM EDT 4:03 PM EDT
Length of Visible Light 11h 37m
Length of Day
10h 44m
Waning Crescent, 17% of the Moon is Illuminated
Oct 30
Waning Crescent
Nov 3
New
Nov 10
First Quarter
Nov 17
Full
Nov 25
Last Quarter

Hourly Weather History & Observations

Time (EDT) Temp. Dew Point Humidity Pressure Visibility Wind Dir Wind Speed Gust Speed Precip Events Conditions
12:54 AM 57.0 °F 51.1 °F 81% 30.26 in 9.0 mi Calm Calm - N/A   Mostly Cloudy
1:54 AM 57.0 °F 52.0 °F 83% 30.26 in 8.0 mi Calm Calm - N/A   Mostly Cloudy
2:54 AM 55.0 °F 51.1 °F 86% 30.25 in 8.0 mi Calm Calm - N/A   Mostly Cloudy
3:54 AM 55.0 °F 51.1 °F 86% 30.25 in 7.0 mi SSW 4.6 mph - N/A   Clear
4:54 AM 54.0 °F 51.1 °F 90% 30.24 in 8.0 mi South 4.6 mph - N/A   Scattered Clouds
5:54 AM 55.0 °F 51.1 °F 86% 30.25 in 8.0 mi SSW 5.8 mph - N/A   Mostly Cloudy
6:54 AM 54.0 °F 51.1 °F 90% 30.25 in 8.0 mi SSW 4.6 mph - N/A   Mostly Cloudy
7:54 AM 55.0 °F 51.1 °F 86% 30.26 in 6.0 mi Calm Calm - N/A   Mostly Cloudy
8:54 AM 57.0 °F 52.0 °F 83% 30.26 in 7.0 mi South 5.8 mph - N/A   Overcast
9:54 AM 57.9 °F 53.1 °F 84% 30.28 in 8.0 mi SSW 4.6 mph - N/A   Overcast
10:54 AM 62.1 °F 52.0 °F 70% 30.27 in 10.0 mi SSW 8.1 mph - N/A   Overcast
11:54 AM 64.9 °F 52.0 °F 63% 30.25 in 10.0 mi SSW 11.5 mph - N/A   Overcast
12:54 PM 71.1 °F 54.0 °F 55% 30.22 in 10.0 mi West 12.7 mph - N/A   Mostly Cloudy
1:54 PM 72.0 °F 54.0 °F 53% 30.18 in 10.0 mi West 8.1 mph - N/A   Mostly Cloudy
2:54 PM 75.0 °F 54.0 °F 48% 30.17 in 10.0 mi West 10.4 mph 16.1 mph N/A   Scattered Clouds
3:54 PM 75.0 °F 53.1 °F 46% 30.15 in 10.0 mi WSW 8.1 mph - N/A   Scattered Clouds
4:54 PM 75.9 °F 53.1 °F 45% 30.14 in 10.0 mi WNW 6.9 mph - N/A   Scattered Clouds
5:54 PM 73.0 °F 53.1 °F 49% 30.15 in 10.0 mi SSW 3.5 mph - N/A   Scattered Clouds
6:54 PM 71.1 °F 54.0 °F 55% 30.17 in 10.0 mi Calm Calm - N/A   Mostly Cloudy
7:54 PM 66.0 °F 55.0 °F 68% 30.18 in 10.0 mi South 4.6 mph - N/A   Mostly Cloudy
8:54 PM 66.9 °F 55.0 °F 66% 30.18 in 10.0 mi SSW 4.6 mph - N/A   Overcast
9:54 PM 64.0 °F 54.0 °F 70% 30.18 in 10.0 mi SSW 5.8 mph - N/A   Mostly Cloudy
10:54 PM 61.0 °F 54.0 °F 78% 30.19 in 10.0 mi SSW 5.8 mph - N/A   Scattered Clouds
11:54 PM 61.0 °F 54.0 °F 78% 30.18 in 10.0 mi SSW 6.9 mph - N/A   Scattered Clouds